Hourly Data Report for October 05, 2017

All times are specified in Local Standard Time (LST). Add 1 hour to adjust for Daylight Saving Time where and when it is observed.

HAMILTON A
ONTARIO

43°10'25.000" N
79°56'06.000" W
237.70 m
6153193
71263
YHM

Download Data

Hourly Data (October 2017)
Hourly Data Report for October 5, 2017
Temp Definition
°C
Dew Point Temp Definition
°C
Rel Hum Definition
%
Wind Dir Definition
10's deg

Wind Spd Definition
km/h
Visibility Definition
km
Stn Press Definition
kPa
Hmdx Definition


Wind Chill Definition


Weather Definition


TIME
00:00 Legend Double Dagger 13.1 10.2 82 1 9 24.1 99.37     LegendNANA
01:00 Legend Double Dagger 12.9 10.7 86 36 1 24.1 99.39     Mostly Cloudy
02:00 Legend Double Dagger 11.2 10.8 97 25 4 24.1 99.34     LegendNANA
03:00 Legend Double Dagger 10.5 10.3 99 21 7 24.1 99.34     LegendNANA
04:00 Legend Double Dagger 10.1 10.0 99 19 7 24.1 99.35     Clear
05:00 Legend Double Dagger 9.5 9.4 99 26 7 1.2 99.34     Fog
06:00 Legend Double Dagger 8.6 8.6 100 27 8 16.1 99.33     LegendNANA
07:00 Legend Double Dagger 8.5 8.4 100 23 8 9.7 99.33     Clear
08:00 Legend Double Dagger 12.1 12.1 100 23 7 24.1 99.34     LegendNANA
09:00 Legend Double Dagger 15.3 12.4 82 23 10 24.1 99.33     LegendNANA
10:00 Legend Double Dagger 17.5 11.3 67 25 24 24.1 99.30     Mainly Clear
11:00 Legend Double Dagger 18.8 10.9 60 25 20 24.1 99.22     LegendNANA
12:00 Legend Double Dagger 19.5 10.0 54 23 21 24.1 99.16     LegendNANA
13:00 Legend Double Dagger 20.7 8.8 46 24 26 24.1 99.09     Mainly Clear
14:00 Legend Double Dagger 21.2 7.7 41 27 24 24.1 99.03     LegendNANA
15:00 Legend Double Dagger 21.6 6.7 38 24 21 24.1 98.99     LegendNANA
16:00 Legend Double Dagger 21.4 7.2 39 23 20 24.1 98.96     Mainly Clear
17:00 Legend Double Dagger 19.9 9.4 51 24 19 24.1 98.95     LegendNANA
18:00 Legend Double Dagger 17.0 9.6 61 23 15 24.1 98.94     LegendNANA
19:00 Legend Double Dagger 15.8 10.3 69 23 12 24.1 99.00     Mostly Cloudy
20:00 Legend Double Dagger 15.7 10.7 72 22 11 24.1 99.02     LegendNANA
21:00 Legend Double Dagger 15.2 11.2 76 27 5 24.1 99.05     LegendNANA
22:00 Legend Double Dagger 14.9 11.7 81 20 7 24.1 99.04     Cloudy
23:00 Legend Double Dagger 14.6 11.8 83 23 4 24.1 99.02     LegendNANA

Notes on Data Quality.

Legend

  • E = Estimated
  • M = Missing
  • NA = Not Available
  • ‡ = Partner data that is not subject to review by the National Climate Archives
Date modified: